Regional Weather Roundup
Issued by NWS Wakefield, VA

Home | Current Version | Previous Version | Graphics & Text | Print | Product List | Glossary On
Versions: 1 2 3 4 5 6 7 8 9 10 11 12 13 14 15 16 17 18 19 20 21 22 23 24 25 26 27 28 29 30 31 32 33 34 35 36 37 38 39 40 41 42 43 44 45 46 47 48 49
000
ASUS41 KAKQ 061610
RWRAKQ

REGIONAL WEATHER ROUNDUP
NATIONAL WEATHER SERVICE WAKEFIELD VA
1100 AM EST FRI MAR 06 2015

Note: "fair" indicates few or no clouds below 12,000 feet with no
significant weather and/or obstructions to visibility. * = Denotes
station may not report precipitation (e.g., rain,snow,etc.),
thunder or fog.

VAZ042-051-052>054-056-061700-
NORTHERN VIRGINIA

CITY           SKY/WX    TMP DP  RH WIND       PRES   REMARKS
WASH NATIONAL  SUNNY     23   2  40 NE5       30.61F
DULLES         SUNNY     17   2  51 VRB7      30.59F
FORT BELVOIR   SUNNY     21   4  47 CALM      30.60F
QUANTICO       SUNNY     21   9  59 NE10      30.62F WCI  10
FREDERICKSBRG* SUNNY     23   6  49 N6        30.60F
STAFFORD*      SUNNY     20   1  44 CALM      30.63F
WARRENTON      SUNNY     22   9  58 N6        30.57F
CULPEPER*      SUNNY     21   1  42 NE7       30.58F
MANASSAS*      NOT AVBL
LEESBURG*      SUNNY     19   7  58 NW7       30.59F
WINCHESTER     SUNNY     21  -4  33 NW3       30.55F
FRONT ROYAL*   FAIR      18   1  49 CALM      30.55F
LURAY*         FAIR      25  10  54 CALM      30.54F
$$

VAZ048-049-060>072-079>083-061700-
CENTRAL AND SOUTH CENTRAL VIRGINIA

CITY           SKY/WX    TMP DP  RH WIND       PRES   REMARKS
RICHMOND       SUNNY     24   8  50 NE9       30.58F
CHESTERFIELD*  FAIR      23   1  39 N8        30.58F
PETERSBURG*    SUNNY     26  12  56 NE12      30.57F WCI  15
HANOVER        SUNNY     22   8  55 VRB5      30.59F
TAPPAHANNOCK*  SUNNY     22   3  43 NE7       30.59S
QUINTON*       FAIR      22   9  57 N8        30.58F
CHARLOTTSVILLE SUNNY     22   7  52 CALM      30.54F
GORDONSVILLE*  FAIR      20   3  48 NE7       30.56F
ORANGE*        SUNNY     23   5  46 N8        30.58F
LOUISA*        SUNNY     21   3  45 NE3       30.55F
BUMPASS*       FAIR      20   2  45 N6        30.57F
FARMVILLE*     SUNNY     27  11  53 N5          N/A
CREWE*         FAIR      23   6  48 NE5       30.55F
FORT PICKETT*  FAIR      23   9  54 N8        30.55S
CHASE CITY*    FAIR      27  13  57 N7        30.53F
CLARKSVILLE*   FAIR      27  12  54 NE5       30.53F
SOUTH HILL*    SUNNY     24   9  51 NE8       30.59F
LAWRENCEVILLE* FAIR      25  11  55 N8        30.54F
EMPORIA*       SUNNY     27  10  50 N12G17    30.57F WCI  16
$$

VAZ088>098-061700-
SOUTHEAST VIRGINIA

CITY           SKY/WX    TMP DP  RH WIND       PRES   REMARKS
NORFOLK        SUNNY     25  13  60 N15G29    30.54F WCI  13
VIRGINIA BEACH MOSUNNY   28  15  58 NE14G21   30.54S WCI  17
NORFOLK NAVAL  MOSUNNY   27  11  51 N20       30.56F WCI  13
WEST POINT*    SUNNY     27  11  52 N8        30.59F
SALUDA*        FAIR      23  11  62 N8        30.57S
NEWPORT NEWS   MOSUNNY   28  14  55 N12       30.55F WCI  18
LANGLEY AFB    SUNNY     26  14  60 NE18G24   30.54F WCI  12
FORT EUSTIS    SUNNY     26  14  61 N8        30.54F
WILLIAMSBURG*    N/A    N/A N/A N/A MISG      30.55F
HR EXEC AP*      N/A    N/A N/A N/A MISG        N/A
FRANKLIN*      MOSUNNY   26  15  61 N9        30.56F
WAKEFIELD      SUNNY     25  11  55 VRB6      30.56F
$$

VAZ020-022-025-037-045-061700-
WEST CENTRAL AND SOUTHWEST VIRGINIA

CITY           SKY/WX    TMP DP  RH WIND       PRES   REMARKS
STAUNTON*      SUNNY     17   5  60 CALM      30.53F
WAYNESBORO*    FAIR      14   6  70 NW3       30.49F
HOT SPRINGS VA SUNNY     15   7  68 CALM      30.26S
LYNCHBURG      SUNNY     23  10  57 VRB7      30.52F
DANVILLE       SUNNY     28  12  51 NE10      30.53F WCI  19
SOUTH BOSTON*  FAIR      26   8  46 E3        30.55S
MARTINSVILLE   SUNNY     28  14  54 NE6       30.52F
ROANOKE        SUNNY     22   8  55 NE8       30.51F
BLACKSBURG     SUNNY     19   7  59 CALM      30.44F
DUBLIN*        SUNNY     21  11  64 CALM      30.43F
MARION*        SUNNY     23  11  60 W3        30.40S
HILLSVILLE*    SUNNY     22  14  71 SW3       30.36S
RICHLANDS*     FAIR      17  11  76 CALM      30.36F
WISE*          SUNNY     23  10  58 CALM      30.39S
ABINGDON*      SUNNY     24  16  73 CALM      30.41S
$$

MDZ021>025-VAZ099-100-061700-
SOUTHERN MARYLAND AND THE DELMARVA PENINSULA

CITY           SKY/WX    TMP DP  RH WIND       PRES   REMARKS
PATUXENT RIVER MOSUNNY   20   7  57 NE15      30.59S WCI   6
BAY BRIDGE APT   N/A     21   5  49 N9        30.60F
LEONARDTOWN    MOSUNNY   21  10  63 CALM      30.60S
DOVER          SUNNY     18   7  62 N13       30.57F WCI   5
GEORGETOWN     MIX PCPN  21   9  59 N9        30.56F
EASTON         NOT AVBL
CAMBRIDGE      SUNNY     23   9  54 N9        30.58F
SALISBURY      SUNNY     24  10  55 N8        30.55F
OCEAN CITY     CLOUDY    22  12  65 N13       30.55F WCI  10
WALLOPS ISLAND SUNNY     23  12  62 N8        30.55F
ACCOMACK*      SUNNY     23  10  58 N9        30.55F
$$

NCZ012>017-030>032-061700-
NORTH CENTRAL AND EASTERN NORTH CAROLINA

CITY           SKY/WX    TMP DP  RH WIND       PRES   REMARKS
ROANOKE RAPIDS FAIR      28  12  50 NE10G17   30.55S WCI  19
RALEIGH        MOSUNNY   29   6  38 NE12G18   30.52F WCI  19
ELIZABETH CITY SUNNY     29  16  58 N15       30.52F WCI  18
AHOSKIE*       SUNNY     27  14  58 N8        30.55S
EDENTON*       SUNNY     31  19  61 N10G23    30.52S WCI  22
CURRITUCK*     MOSUNNY   27  14  57 N15G23    30.54S WCI  15
KILL DEVIL HLS CLOUDY    28  22  76 N12G22    30.48S WCI  18
MANTEO         CLOUDY    28  22  78 N18G26    30.50S WCI  15
CAPE HATTERAS  CLOUDY    31  24  75 N13G30    30.44S WCI  21
TARBORO*       FAIR      30  15  53 N13       30.55S WCI  20
GOLDSBORO      SUNNY     30  21  70 N10G18    30.49F WCI  21
WASHINGTON     SUNNY     30  19  65 N15       30.51S WCI  19
GREENVILLE     SUNNY     32  18  55 N13G18    30.52S WCI  22
NEW BERN       MOSUNNY   33  20  58 N16       30.50S WCI  23
WILMINGTON     CLOUDY    35  22  58 N15       30.46S
$$

VAZ048-061700-
ELSEWHERE

CITY           SKY/WX    TMP DP  RH WIND       PRES   REMARKS
HARRISBURG PA  SUNNY     16   3  56 W7        30.58F
BALTIMORE      SUNNY     20   4  50 VRB6      30.58F
ANNAPOLIS        N/A    N/A N/A N/A MISG      30.60F
ANDREWS AFB    SUNNY     19   4  54 N7        30.57F
PHILADELPHIA   SUNNY     19   6  57 N7        30.58F
HENDERSON NC   SUNNY     26   9  47 N7        30.52F
GREENSBORO     PTSUNNY   26  16  65 NE10      30.48F WCI  16
ROCKY MOUNT    SUNNY     29  14  53 NE13G21   30.53F WCI  19
$$

VAZ100-061700-
MARINE

STATION/POSITION TIME  TEMP    WIND        PRES    WAVE   SWELL
                       AIR SEA DIR/SP/G            HT/PER HT/PER
                 (UTC) (F)     (DEG/KT/KT) (MB)    (FT/S) (FT/S)
BRANDYWINE LGT   1600   18 31   20/ 13/ 15 1035.1F
CAPE MAY NJ      1600          350/  5/  9   N/A
LEWES DE         1600   19 30   10/ 13/ 15 1035.0F
15NM E FENWICK I 1600   22 36              1033.8F   5/ 6
OCEAN-CITY-INLET 1600   21 32   20/ 11/ 15 1034.3S
WACHAPREAGUE VA  1600   23 34   10/  5/ 11 1034.3S
THOMAS POINT MD  1600           10/ 11/ 13   N/A
COVE POINT MD    1600   17      30/ 13/ 16 1035.7S
SOLOMONS ISLAND  1600      32                N/A
BISHOPS HEAD MD  1600   19 32   20/ 10/ 16 1034.8F
CAMBRIDGE MD     1600           20/  8/ 14   N/A
LEWISETTA VA     1600   20 32  360/  8/ 13 1035.5F
RAPPAHANNOCK LGT 1600          350/ 16/ 19 1035.3S
STINGRAY PT      1600   21 33   10/ 16/ 21   N/A     2/ 3
YORK RVR RNG VA  1600           20/ 18/ 20   N/A
YORKTOWN VA      1600           30/ 11/ 16   N/A
DOMINION TERM VA 1600   24      10/ 11/ 19 1034.7S
KIPTOPEKE VA     1600      38   10/  9/ 13   N/A
CHES BAY BRIDGE  1600   22 33  360/ 20/ 23 1034.0S
CAPE HENRY VA    1600   22      20/ 14/ 18 1032.9R
CHESAPEAKE LGHT  1500   21      20/ 20/ 23 1034.2R
WILLOUBY STN VA  1600   22      20/ 20/ 22 1035.1R
S CRANEY ISL VA  1600           20/ 18/ 25   N/A
CAPE HENRY BUOY  1600      35                N/A     6/ 8
1ST LANDING BUOY 1600   24 34  350/ 16/ 19 1033.8S   3/ 4
OFFSHORE WE BUOY 1600      36                N/A     8/ 8   5/ 8
64NM E OF VA BCH 1600   35 51  360/ 21/ 27 1030.3F   9/ 8   7/ 8
DUCK PIER NC     1600           10/ 19/ 24   N/A
44100 DUCK FRF   1600      37                N/A     8/ 8   2/11
44056 DUCK FRF   1600      35                N/A     8/ 8   2/11
OREGON INLET NC  1600   30 38  360/ 17/ 24 1031.9R
HATTERAS NC      1600      44   10/ 27/ 32 1030.8R
CAPE LOOKOUT NC  1600           10/ 20/ 25 1030.7F
$$


USA.gov is the U.S. government's official web portal to all federal, state and local government web resources and services.